This is the latest recevied weather packets stored in our database for station/object KD9CCP. If no packets are shown the sender has not sent any weather packets the latest 10 day(s).
| Time | Temp. | Humidity | Pressure | Rain* | Wind** | Luminosity | Snow |
|---|---|---|---|---|---|---|---|
| 1778177048 | 6.11° C | 54% | 1011.8 hPa | 0 mm | - | 103 W/m² | - |
| 1778176744 | 6.11° C | 61% | 1012.2 hPa | 0 mm | - | 95 W/m² | - |
| 1778176441 | 6.11° C | 59% | 1012.1 hPa | 0 mm | - | 102 W/m² | - |
| 1778176138 | 6.11° C | 61% | 1012 hPa | 0 mm | - | 78 W/m² | - |
| 1778175835 | 6.11° C | 64% | 1012.1 hPa | 0 mm | - | 93 W/m² | - |
| 1778175533 | 5.56° C | 63% | 1012.2 hPa | 0 mm | - | 157 W/m² | - |
| 1778175230 | 5° C | 65% | 1012.3 hPa | 0 mm | - | 155 W/m² | - |
| 1778174926 | 5° C | 73% | 1012.2 hPa | 0 mm | - | 161 W/m² | - |
| 1778174623 | 4.44° C | 73% | 1012.4 hPa | 0 mm | - | 127 W/m² | - |
| 1778174319 | 3.89° C | 76% | 1012.7 hPa | 0 mm | - | 85 W/m² | - |
| 1778174015 | 3.89° C | 77% | 1012.7 hPa | 0 mm | - | 50 W/m² | - |
| 1778173713 | 3.89° C | 81% | 1012.7 hPa | 0 mm | - | 33 W/m² | - |
| 1778173409 | 4.44° C | 73% | 1012.8 hPa | 0 mm | - | 22 W/m² | - |
| 1778173105 | 5.56° C | 64% | 1012.7 hPa | 0 mm | - | 19 W/m² | - |
| 1778172801 | 5.56° C | 61% | 1012.5 hPa | 0 mm | - | 26 W/m² | - |
| 1778172497 | 6.11° C | 58% | 1012.5 hPa | 0 mm | - | 42 W/m² | - |
| 1778172195 | 6.67° C | 58% | 1012.6 hPa | 0 mm | - | 127 W/m² | - |
| 1778171892 | 6.11° C | 62% | 1012.5 hPa | 0 mm | - | 204 W/m² | - |
| 1778171589 | 4.44° C | 67% | 1012.6 hPa | 0 mm | - | 187 W/m² | - |
| 1778171285 | 3.89° C | 72% | 1012.8 hPa | 0 mm | - | 144 W/m² | - |
| 1778170981 | 3.89° C | 74% | 1013.1 hPa | 0 mm | - | 70 W/m² | - |
| 1778170678 | 4.44° C | 70% | 1013.4 hPa | 0 mm | - | 36 W/m² | - |
| 1778170375 | 4.44° C | 65% | 1013.1 hPa | 0 mm | - | 23 W/m² | - |
| 1778170071 | 5° C | 65% | 1012.8 hPa | 0 mm | - | 19 W/m² | - |
| 1778169767 | 5° C | 61% | 1012.8 hPa | 0 mm | - | 29 W/m² | - |
* Rain latest hour (hover to see other rain measurements)
** Current wind speed in m/s (hover to see current wind gust speed)